C2610 Weather Reports


time (UTC)temp
C
wind
direction
speed
KPH
gust
KPH
rain 1hr
cm
rain 24hr
cm
rain mn
cm
humidity
%
barometer
mb
20260506144505 10 0 0.0 0.0 0.00 0.00 0.00 93 1036.5
20260506143003 10 0 0.0 0.0 0.00 0.00 0.00 93 1036.6
20260506141503 10 186 0.0 1.6 0.00 0.00 0.00 93 1036.6
20260506140003 10 0 0.0 0.0 0.00 0.00 0.00 93 1036.4
20260506134503 10 0 0.0 0.0 0.00 0.00 0.00 93 1036.4
20260506133004 10 0 0.0 0.0 0.00 0.00 0.00 92 1036.3
20260506131504 10 0 0.0 0.0 0.00 0.00 0.00 92 1036.2
20260506130005 10 0 0.0 0.0 0.00 0.00 0.00 92 1036.3
20260506124504 10 0 0.0 0.0 0.00 0.00 0.00 91 1036.1
20260506123005 10 186 0.0 1.6 0.00 0.00 0.00 91 1036.1
20260506121503 10 186 0.0 1.6 0.00 0.00 0.00 91 1036.0
20260506120004 10 0 0.0 0.0 0.00 0.00 0.00 91 1035.8
20260506114504 10 186 0.0 1.6 0.00 0.00 0.00 91 1036.0
20260506113003 10 0 0.0 0.0 0.00 0.00 0.00 91 1035.9
20260506111503 10 186 0.0 1.6 0.00 0.00 0.00 91 1035.7
20260506110003 10 0 0.0 0.0 0.00 0.00 0.00 91 1035.4
20260506104503 10 0 0.0 0.0 0.00 0.00 0.00 91 1035.2
20260506103003 10 186 0.0 1.6 0.00 0.00 0.00 91 1035.0
20260506101503 9 272 1.6 4.8 0.00 0.00 0.00 91 1034.9
20260506100004 9 0 0.0 0.0 0.00 0.00 0.00 91 1034.9
20260506094504 9 338 0.0 1.6 0.00 0.00 0.00 92 1034.8
20260506093004 9 339 0.0 1.6 0.00 0.00 0.00 92 1034.8
20260506091504 9 0 0.0 0.0 0.00 0.00 0.00 93 1034.8
20260506090005 8 0 0.0 0.0 0.00 0.00 0.00 93 1034.7
20260506084504 8 0 0.0 0.0 0.00 0.00 0.00 93 1034.6
20260506083004 8 341 1.6 1.6 0.00 0.00 0.00 92 1034.6
20260506081504 8 341 0.0 1.6 0.00 0.00 0.00 92 1034.3
20260506073004 9 341 0.0 1.6 0.00 0.00 0.00 90 1033.9
20260506071504 9 341 1.6 1.6 0.00 0.00 0.00 90 1033.8
20260506061505 10 11 0.0 4.8 0.00 0.00 0.00 89 1033.6
20260506044505 11 339 1.6 3.2 0.00 0.00 0.00 87 1033.1
20260506043005 11 348 0.0 3.2 0.00 0.00 0.00 86 1032.8
20260506041503 11 347 0.0 1.6 0.00 0.00 0.00 85 1032.6
20260506040004 12 347 0.0 1.6 0.00 0.00 0.00 84 1032.3
20260506033004 12 0 0.0 0.0 0.00 0.00 0.00 82 1032.1
20260506031503 13 0 0.0 0.0 0.00 0.00 0.00 81 1032.2
20260506024504 14 0 0.0 0.0 0.00 0.00 0.00 78 1032.2
20260506023004 14 58 0.0 1.6 0.00 0.00 0.00 76 1032.1
20260506020003 15 58 0.0 1.6 0.00 0.00 0.00 74 1032.1
20260506011505 16 63 1.6 3.2 0.00 0.00 0.00 68 1032.2
20260506010005 17 66 1.6 4.8 0.00 0.00 0.00 68 1032.3
20260506004504 17 89 1.6 4.8 0.00 0.00 0.00 68 1032.4
20260506001503 17 62 1.6 4.8 0.00 0.00 0.00 70 1032.5
20260506000004 17 45 1.6 4.8 0.00 0.00 0.00 71 1032.5
20260505234505 17 66 1.6 3.2 0.00 0.00 0.00 69 1032.7
20260505233003 17 35 3.2 6.4 0.00 0.00 0.00 70 1032.8
20260505231505 16 77 1.6 4.8 0.00 0.00 0.00 73 1032.9
20260505230004 16 75 1.6 3.2 0.00 0.00 0.00 74 1033.1
20260505224505 16 65 1.6 4.8 0.00 0.00 0.00 73 1033.2
20260505223005 16 55 1.6 4.8 0.00 0.00 0.00 73 1033.2
20260505221505 16 51 3.2 6.4 0.00 0.00 0.00 76 1033.2
20260505220004 16 63 1.6 4.8 0.00 0.00 0.00 75 1033.3
20260505214503 15 60 3.2 4.8 0.00 0.00 0.00 75 1033.6
20260505213003 16 63 1.6 4.8 0.00 0.00 0.00 73 1033.6
20260505211503 16 51 1.6 3.2 0.00 0.00 0.00 76 1033.6
20260505210003 15 34 1.6 4.8 0.00 0.00 0.00 79 1033.6
20260505204503 15 51 1.6 4.8 0.00 0.00 0.00 81 1033.7
20260505203004 14 73 1.6 4.8 0.00 0.00 0.00 81 1033.8
20260505201505 13 57 1.6 3.2 0.00 0.00 0.00 82 1033.8
20260505200004 13 57 1.6 4.8 0.00 0.00 0.00 82 1033.8
20260505194503 13 50 1.6 4.8 0.00 0.00 0.00 83 1033.9
20260505193005 13 56 1.6 3.2 0.00 0.00 0.00 83 1033.8
20260505191503 13 50 1.6 8.0 0.00 0.00 0.00 83 1033.7
20260505190004 13 150 0.0 4.8 0.00 0.00 0.00 81 1033.7
20260505183003 13 125 1.6 4.8 0.00 0.00 0.00 82 1033.7
20260505181503 13 146 1.6 6.4 0.00 0.00 0.00 81 1033.6
20260505180004 13 154 1.6 8.0 0.00 0.00 0.00 83 1033.6
20260505174505 13 146 1.6 4.8 0.00 0.00 0.00 84 1033.5
20260505173003 13 142 0.0 3.2 0.00 0.00 0.00 84 1033.4
20260505171504 13 162 3.2 8.0 0.00 0.00 0.00 84 1033.3
20260505170005 12 142 0.0 4.8 0.00 0.00 0.00 85 1033.3
20260505164504 12 152 0.0 4.8 0.00 0.00 0.00 85 1033.3
20260505163004 12 162 1.6 4.8 0.00 0.00 0.00 87 1033.3
20260505161504 12 136 0.0 3.2 0.00 0.00 0.00 87 1033.2
20260505153003 12 144 0.0 3.2 0.00 0.00 0.00 88 1033.0
20260505151503 12 189 0.0 3.2 0.00 0.00 0.00 89 1032.8